Weather History for Hutchinson, KS

Change the Weather History Date:

Thursday, November 1, 2012

  Actual Average Record
Temperature  
Mean Temperature 58 °F -  
Max Temperature 79 °F 59 °F 79 °F (2012)
Min Temperature 37 °F 36 °F 23 °F (2007)
Degree Days  
Heating Degree Days 8    
Growing Degree Days 8 (Base 50)    
Moisture  
Dew Point 36 °F    
Average Humidity 53    
Maximum Humidity 83    
Minimum Humidity 22    
Precipitation  
Precipitation 0.00 in - - ()
Sea Level Pressure  
Sea Level Pressure 29.97 in    
Wind  
Wind Speed 2 mph (West)    
Max Wind Speed 7 mph    
Max Gust Speed -    
Visibility 10 miles    
Events      
Averages and records for this station are not official NWS values.
T = Trace of Precipitation, MM = Missing Value Source: NWS Daily Summary

Daily Weather History Graph

Daily Weather History Graph

Search for Another Location

Airport:

Trip Planner

Search our weather history database for the weather conditions in past years. The results will help you decide how hot, cold, wet, or windy it might be!

Date:

Astronomy

Nov. 01, 2012 Rise Set
Actual Time 7:57 AM CDT 6:31 PM CDT
Civil Twilight 7:30 AM CDT 6:58 PM CDT
Nautical Twilight 6:59 AM CDT 7:30 PM CDT
Astronomical Twilight 6:28 AM CDT 8:00 PM CDT
Moon 8:31 PM CDT (11/1) 10:29 AM CDT (11/1)
Length of Visible Light 11h 28m
Length of Day
10h 33m
Waning Gibbous, 93% of the Moon is Illuminated
Nov 1
Waning Gibbous
Nov 6
Last Quarter
Nov 13
New
Nov 20
First Quarter
Nov 28
Full

Hourly Weather History & Observations

Time (CDT) Temp. Windchill Dew Point Humidity Pressure Visibility Wind Dir Wind Speed Gust Speed Precip Events Conditions
12:52 AM 42.1 °F - 33.1 °F 70% 30.03 in 10.0 mi Calm Calm - N/A   Clear
1:52 AM 43.0 °F - 34.0 °F 71% 30.01 in 10.0 mi Calm Calm - N/A   Clear
2:52 AM 44.1 °F - 35.1 °F 71% 30.01 in 10.0 mi Calm Calm - N/A   Clear
3:52 AM 37.9 °F - 33.1 °F 83% 30.01 in 10.0 mi Calm Calm - N/A   Clear
4:52 AM 39.9 °F - 34.0 °F 79% 30.00 in 10.0 mi Calm Calm - N/A   Clear
5:52 AM 37.9 °F - 33.1 °F 83% 30.00 in 10.0 mi Calm Calm - N/A   Clear
6:52 AM 37.0 °F - 30.9 °F 79% 30.01 in 10.0 mi Calm Calm - N/A   Clear
7:52 AM 43.0 °F 40.3 °F 34.0 °F 71% 30.01 in 10.0 mi NW 4.6 mph - N/A   Clear
8:52 AM 45.0 °F 43.5 °F 36.0 °F 71% 30.03 in 10.0 mi WNW 3.5 mph - N/A   Clear
9:52 AM 54.0 °F - 36.0 °F 51% 30.02 in 10.0 mi WNW 5.8 mph - N/A   Clear
10:52 AM 61.0 °F - 37.9 °F 42% 30.03 in 10.0 mi WNW 6.9 mph - N/A   Clear
11:52 AM 66.9 °F - 39.0 °F 36% 30.01 in 10.0 mi West 4.6 mph - N/A   Clear
12:52 PM 72.0 °F - 39.0 °F 30% 29.97 in 10.0 mi SSW 5.8 mph - N/A   Clear
1:52 PM 75.9 °F - 37.9 °F 25% 29.95 in 10.0 mi West 5.8 mph - N/A   Clear
2:52 PM 77.0 °F - 37.0 °F 24% 29.92 in 10.0 mi Calm Calm - N/A   Clear
3:52 PM 78.1 °F - 36.0 °F 22% 29.91 in 10.0 mi Calm Calm - N/A   Clear
4:52 PM 77.0 °F - 35.1 °F 22% 29.90 in 10.0 mi Calm Calm - N/A   Clear
5:52 PM 72.0 °F - 37.0 °F 28% 29.90 in 10.0 mi SE 5.8 mph - N/A   Clear
6:52 PM 63.0 °F - 37.9 °F 40% 29.91 in 10.0 mi ESE 4.6 mph - N/A   Clear
7:52 PM 57.0 °F - 37.0 °F 47% 29.91 in 10.0 mi Calm Calm - N/A   Clear
8:52 PM 53.1 °F - 37.0 °F 55% 29.92 in 10.0 mi Calm Calm - N/A   Clear
9:52 PM 52.0 °F - 37.9 °F 59% 29.92 in 10.0 mi Calm Calm - N/A   Clear
11:52 PM 57.0 °F - 39.0 °F 51% 29.88 in 10.0 mi ESE 4.6 mph - N/A   Clear